Home   Weather   Steffisburg   Past weeks

Flag for Switzerland Past Weather in Steffisburg, Bern, Switzerland — Yesterday and Last 2 Weeks

Now
19 °F

Ice fog.


Feels Like: 19 °F
Forecast: 29 / 41 °F
Wind: 1 mph from North

Location: Bern / Belp

Current Time: Dec 11, 2016 at 5:20:31 am

Latest Report: Dec 11, 2016 at 4:50 am


Visibility: 2 mi

Pressure: 30.27 "Hg (28.09 "Hg at 582m altitude)

Humidity: 93%

Dew Point: 18 °F

Location of SteffisburgLocation

Past Weather in Steffisburg — Graph

°F

Steffisburg Temperature Yesterday

Maximum temperature yesterday: 46 °F (at 3:20 pm)
Minimum temperature yesterday: 21 °F (at 6:50 am)
Average temperature yesterday: 29 °F

High & Low Weather Summary for the Past Weeks

 TemperatureHumidityPressure
High48 °F (Nov 27, 12:50 pm)100% (Nov 26, 4:20 am)30.63 "Hg (Nov 26, 4:20 am)
Low19 °F (Dec 1, 7:20 am)53% (Dec 1, 2:20 pm)29.95 "Hg (Nov 27, 2:20 pm)
Average32 °F89%30.30 "Hg
* Reported Nov 26 4:20 am — Dec 11 4:20 am, Steffisburg, Weather by CustomWeather, © 2016

Note: Actual official high and low records may vary slightly from our data, if they occured in-between our weather recording intervals... More about our weather records

Advertising

Steffisburg Weather History for the Previous 24 Hours

Scroll right to see more
 ConditionsComfort  
Time TempWeatherWind HumidityBarometerVisibility
4:20 am
Sun, Dec 11
19 °FCold.1 mph93%30.24 "Hg3 mi
3:50 am19 °FIce fog.1 mph100%30.24 "Hg1 mi
3:20 am19 °FIce fog.1 mph100%30.24 "Hg0 mi
2:50 am21 °FIce fog.1 mph93%30.27 "Hg0 mi
2:20 am21 °FIce fog.1 mph93%30.27 "Hg1 mi
1:50 am21 °FIce fog.1 mph100%30.27 "Hg0 mi
1:20 am23 °FIce fog.2 mph93%30.27 "Hg1 mi
12:50 am23 °FIce fog.1 mph93%30.27 "Hg2 mi
12:20 am23 °FIce fog.1 mph93%30.27 "Hg0 mi
11:50 pm
Sat, Dec 10
21 °FIce fog.2 mph100%30.27 "Hg1 mi
11:20 pm23 °FIce fog.1 mph100%30.27 "Hg2 mi
10:50 pm23 °FIce fog.2 mph100%30.27 "Hg1 mi
10:20 pm25 °FIce fog.No wind100%30.27 "Hg0 mi
9:50 pm25 °FIce fog.1 mph100%30.30 "Hg1 mi
9:20 pm28 °FIce fog.3 mph93%30.30 "Hg1 mi
8:50 pm27 °FIce fog.1 mph93%30.30 "Hg1 mi
8:20 pm27 °FChilly.No wind93%30.30 "Hg3 mi
7:50 pm28 °FChilly.5 mph93%30.30 "Hg4 mi
7:20 pm28 °FChilly.3 mph93%30.30 "Hg4 mi
6:50 pm30 °FClear.5 mph100%30.30 "Hg10 mi
6:20 pm32 °FClear.5 mph93%30.30 "Hg6 mi
5:50 pm34 °FClear.2 mph87%30.30 "Hg10 mi
5:20 pm34 °FClear.5 mph87%30.30 "Hg10 mi
4:50 pm36 °FClear.3 mph81%30.30 "Hg10 mi
4:20 pm36 °FSunny.2 mph75%30.30 "Hg10 mi
3:50 pm45 °FSunny.3 mph61%30.30 "Hg10 mi
3:20 pm46 °FSunny.3 mph53%30.30 "Hg10 mi
2:50 pm45 °FSunny.3 mph57%30.30 "Hg10 mi
2:20 pm45 °FSunny.2 mph57%30.33 "Hg10 mi
1:50 pm45 °FSunny.2 mph57%30.33 "Hg10 mi
1:20 pm41 °FSunny.No wind70%30.33 "Hg10 mi
12:50 pm39 °FSunny.1 mph75%30.33 "Hg10 mi
12:20 pm36 °FSunny.1 mph75%30.36 "Hg10 mi
11:50 am34 °FSunny.1 mph87%30.39 "Hg10 mi
11:20 am32 °FSunny.2 mph93%30.39 "Hg10 mi
10:50 am28 °FSunny.1 mph100%30.39 "Hg10 mi
10:20 am27 °FSunny.No wind100%30.39 "Hg10 mi
9:50 am27 °FPassing clouds.2 mph93%30.39 "Hg4 mi
9:20 am23 °FPassing clouds.1 mph93%30.39 "Hg4 mi
8:50 am21 °FLight fog.1 mph93%30.39 "Hg3 mi
8:20 am21 °FIce fog.1 mph93%30.39 "Hg1 mi
7:50 am21 °FIce fog.1 mph93%30.39 "Hg3 mi
7:20 am21 °FIce fog.1 mph93%30.39 "HgN/A
6:50 am21 °FIce fog.2 mph100%30.39 "Hg4 mi
6:20 am23 °FIce fog.2 mph93%30.39 "HgN/A
5:50 am23 °FCold.3 mph93%30.39 "HgN/A
5:20 am23 °FIce fog.6 mph93%30.39 "Hg2 mi
Weather by CustomWeather, © 2016

See weather overviewHow to use our weather pages